Weather History for KCHA - January, 2013

Change the Weather History Date:

Sunday, January 27, 2013

  Actual Average Record
Temperature  
Mean Temperature 43 °F 41 °F  
Max Temperature 52 °F 51 °F 75 °F (1999)
Min Temperature 33 °F 31 °F 2 °F (1940)
Degree Days  
Heating Degree Days 22 24  
Month to date heating degree days 539 669  
Since 1 July heating degree days 1678 1953  
Cooling Degree Days 0 0  
Month to date cooling degree days 2 0  
Year to date cooling degree days 2 0  
Moisture  
Dew Point 33 °F    
Average Humidity 72    
Maximum Humidity 92    
Minimum Humidity 52    
Precipitation  
Precipitation 0.00 in 0.15 in 1.03 in (1960)
Month to date precipitation 7.57 4.27  
Year to date precipitation 7.57 4.27  
Snow  
Snow 0.00 in 0.00 in - ()
Month to date snowfall 0.0 1.5  
Since 1 July snowfall T 1.8  
Snow Depth 0.00 in    
Sea Level Pressure  
Sea Level Pressure 30.39 in    
Wind  
Wind Speed 5 mph (East)    
Max Wind Speed 12 mph    
Max Gust Speed 16 mph    
Visibility 10 miles    
Events      
T = Trace of Precipitation, MM = Missing Value Source: NWS Daily Summary

Daily Weather History Graph

Daily Weather History Graph

Search for Another Location

Airport or City:

Trip Planner

Search our weather history database for the weather conditions in past years. The results will help you decide how hot, cold, wet, or windy it might be!

Date:

Astronomy

Jan. 27, 2013 Rise Set
Actual Time 7:42 AM EST 6:04 PM EST
Civil Twilight 7:16 AM EST 6:31 PM EST
Nautical Twilight 6:45 AM EST 7:02 PM EST
Astronomical Twilight 6:15 AM EST 7:32 PM EST
Moon 6:54 PM EST (1/27) 7:38 AM EST (1/27)
Length of Visible Light 11h 15m
Length of Day
10h 21m
Full, 100% of the Moon is Illuminated
Jan 27
Full
Feb 3
Last Quarter
Feb 10
New
Feb 17
First Quarter
Feb 25
Full

Hourly Weather History & Observations

Time (EST) Temp. Windchill Dew Point Humidity Pressure Visibility Wind Dir Wind Speed Gust Speed Precip Events Conditions
12:53 AM 36.0 °F 29.0 °F 33.1 °F 89% 30.35 in 10.0 mi North 9.2 mph - N/A   Clear
1:53 AM 35.1 °F 31.0 °F 32.0 °F 89% 30.37 in 10.0 mi North 4.6 mph - N/A   Clear
2:53 AM 34.0 °F 27.2 °F 30.9 °F 89% 30.37 in 10.0 mi North 8.1 mph - N/A   Partly Cloudy
3:53 AM 34.0 °F 28.8 °F 30.9 °F 89% 30.37 in 10.0 mi NNE 5.8 mph - N/A   Overcast
4:53 AM 34.0 °F 28.0 °F 30.9 °F 89% 30.38 in 10.0 mi North 6.9 mph - N/A   Mostly Cloudy
5:53 AM 34.0 °F - 30.9 °F 89% 30.39 in 10.0 mi Calm Calm - N/A   Mostly Cloudy
6:53 AM 34.0 °F 29.8 °F 30.0 °F 85% 30.40 in 10.0 mi NE 4.6 mph - N/A   Mostly Cloudy
7:53 AM 33.1 °F - 30.0 °F 89% 30.43 in 10.0 mi Calm Calm - N/A   Mostly Cloudy
8:53 AM 34.0 °F 29.8 °F 30.0 °F 85% 30.45 in 8.0 mi NNE 4.6 mph - N/A   Mostly Cloudy
9:53 AM 36.0 °F - 30.9 °F 82% 30.46 in 8.0 mi Calm Calm - N/A   Mostly Cloudy
10:53 AM 39.9 °F - 30.9 °F 70% 30.44 in 10.0 mi Calm Calm - N/A   Mostly Cloudy
11:53 AM 44.1 °F - 33.1 °F 65% 30.43 in 10.0 mi Calm Calm - N/A   Mostly Cloudy
12:53 PM 48.0 °F - 35.1 °F 61% 30.39 in 10.0 mi Calm Calm - N/A   Mostly Cloudy
1:53 PM 48.9 °F - 35.1 °F 59% 30.38 in 10.0 mi North 4.6 mph - N/A   Mostly Cloudy
2:53 PM 51.1 °F - 35.1 °F 54% 30.37 in 10.0 mi Calm Calm - N/A   Mostly Cloudy
3:53 PM 52.0 °F - 35.1 °F 53% 30.37 in 10.0 mi SE 6.9 mph - N/A   Overcast
4:53 PM 50.0 °F - 35.1 °F 57% 30.38 in 10.0 mi SE 9.2 mph - N/A   Overcast
5:53 PM 50.0 °F - 34.0 °F 54% 30.38 in 10.0 mi SSE 6.9 mph - N/A   Overcast
6:53 PM 48.9 °F - 34.0 °F 56% 30.38 in 10.0 mi SSE 5.8 mph - N/A   Overcast
7:53 PM 48.9 °F - 33.1 °F 54% 30.38 in 10.0 mi South 6.9 mph - N/A   Overcast
8:53 PM 48.9 °F - 33.1 °F 54% 30.39 in 10.0 mi South 5.8 mph - N/A   Overcast
9:53 PM 48.9 °F - 33.1 °F 54% 30.38 in 10.0 mi South 6.9 mph - N/A   Overcast
10:53 PM 48.0 °F - 33.1 °F 56% 30.37 in 10.0 mi South 6.9 mph - N/A   Mostly Cloudy
11:53 PM 46.9 °F - 33.1 °F 59% 30.38 in 10.0 mi SSW 6.9 mph - N/A   Mostly Cloudy